ONEWEB-0202, 48224

Orbit data source: Space-Track

ONEWEB-0202, 48224 is a payload satellite owned by One Web (NAA) (UK) in LEO that was launched on Sun, 25 Apr 2021 UTC via a SOYUZ-2-1B launch vehicle from the Vostochny Cosmodrome (VOSTO). Payload-class satellites include a variety of spacecraft equipped with specific instruments for various scientific and technological missions. These include communications satellites like Starlink; space stations such as the ISS; scientific satellites like the Hubble; Earth observation satellites from companies like Planet Labs, Umbra, and HawkEye 360; GPS; miniature CubeSats for education and research; and military/defense satellites.

Loading next visibility...
Identifier
48224, 2021-031Q
Orbit
LEO
Country
Flag of UKUK
Related business
Manufacturer
One Web
Mission
Operational Commercial Communications
Bus & Motor
ARROW, Unknown motor
Mass
148 kg wet, ~140 kg dry
Launch date (UTC)
2021-04-25 (5 years ago)
Launch vehicle
SOYUZ-2-1B
Launch site
Vostochny Cosmodrome (VOSTO)
Object type
Payload
Rocket body
Debris
Shape & HBR
Trap Box + 2 Pan, 6.7 m
Radar Cross Section
3.464 m², Large (>1 m²)

Expand to show TLE details & history
Last TLE update: 1 day ago

TLE from 1 day ago
0 ONEWEB-0202
1 48224U 21031Q   25306.44949862  .00000261  00000-0  67044-3 0  9992
2 48224  87.9005 334.8840 0002642  92.4137 267.7295 13.14503686218579
Epoch: 2025-11-02T10:47Z
TLE epoch observation values (Epoch: 2025-11-02T10:47:16.680Z)
Latitude
-0.00006°
Longitude
131.09943°
Altitude
1,208.761 km
Speed
7.25 km/s
True Right ascension
22h 19m 32s
True Declination
0° 00' 00"
Sunlit
Object was in daylight at epoch
Visualization orbit readout
Latitude
Unknown
Longitude
Unknown
Altitude
Unknown
Speed
Unknown
Apparent Right ascension
Unknown
Apparent Declination
Unknown
Sunlit
N/A
Visualization observer readout
Local Sidereal Time
09:21:01
Azimuth
Unknown
Elevation
Unknown
Doppler factor
Unknown
Orbital elements
Apogee altitude
1,204.903 km
Perigee altitude
1,200.898 km
Semi-major axis
7,581.038 km
Eccentricity
0.00026
Inclination
87.9005°
RAAN
334.884°
Arg. of periapsis
92.4137°
True anomaly
267.69925°
Mean anomaly
267.7295°
Eccentric anomaly
267.71437°
Mean motion
3.28814 °/min
Orbital period
109.48 mins
BSTAR
0.00067044
Loading maneuver chart data...
Computing Atmospheric mass density...
Loading historical data...
Loading historical data...
Loading historical data...
Loading historical data...
Loading historical data...
Loading historical data...
Loading historical data...

Documentation

Showing up to 5 results
|